DateTimeUTC,F1_A11,F1_S11,BsB_S11,BsG_S11,BsR_S11,BbsB_S11,BbsG_S11,BbsR_S11,BaB_A11,BaG_A11,BaR_A11,Tu_S11,T_S11,Uu_S11,U_S11,P_S11,T1_A11
2021-09-25T00:00:00Z,00000200,21000000,,,,,,,-000.11,-000.04,-000.04,16.2,23.5,,00.0,0665.6,30.8
2021-09-25T00:01:00Z,00000200,21000000,,,,,,,-000.14,0000.19,-000.14,16.2,23.6,,00.0,0665.7,30.9
2021-09-25T00:02:00Z,00000200,21000000,,,,,,,0000.07,-000.27,-000.07,16.2,23.6,,00.0,0665.7,30.9
2021-09-25T00:03:00Z,00000200,61000000,,,,,,,0000.29,0000.26,-000.05,16.3,23.6,,00.0,0665.7,30.9
2021-09-25T00:04:00Z,00000200,41000000,0001.43,0000.47,0000.19,0000.61,-000.11,0000.01,0000.23,0000.10,0000.27,16.8,23.5,,00.0,0666.8,30.9
2021-09-25T00:05:00Z,00000200,01000000,0001.53,0000.49,0000.07,-000.06,0000.25,-000.11,-000.03,0000.06,0000.16,16.8,23.5,,00.0,0666.8,30.9
2021-09-25T00:06:00Z,00000200,01000000,0000.63,0000.71,-000.05,0000.76,0000.03,-000.05,0000.00,0000.07,-000.25,16.8,23.5,,00.0,0666.8,30.9
2021-09-25T00:07:00Z,00000200,01000000,0000.40,0000.33,-000.07,0000.22,-000.09,-000.07,-000.41,-000.18,0000.18,16.8,23.5,,00.0,0666.8,30.9
2021-09-25T00:08:00Z,00000200,01000000,0001.40,0000.70,0000.10,0000.27,-000.12,0000.17,0000.13,-000.16,-000.26,16.7,23.5,,00.0,0666.8,30.9
2021-09-25T00:09:00Z,00000200,01000000,0000.49,0000.50,0000.12,0000.03,0000.43,-000.08,0000.06,-000.09,-000.02,16.6,23.4,,00.0,0666.8,30.9
2021-09-25T00:10:00Z,00000200,01000000,0000.13,0000.07,-000.05,-000.11,0000.24,-000.11,0000.44,0000.64,0000.27,16.6,23.4,,00.0,0666.8,30.8
2021-09-25T00:11:00Z,00000200,01000000,0001.43,0000.59,-000.12,0000.66,0000.25,-000.02,0000.15,0000.03,0000.34,16.5,23.4,,00.0,0666.8,30.8
2021-09-25T00:12:00Z,00000200,01000000,0000.22,0000.43,0000.20,0000.88,0000.22,-000.28,0000.05,0000.16,-000.31,16.5,23.3,,00.0,0666.8,30.8
2021-09-25T00:13:00Z,00000200,01000000,-000.28,0000.47,0000.15,0000.35,0000.28,-000.01,0000.32,0000.20,0000.23,16.5,23.3,,00.0,0666.8,30.8
2021-09-25T00:14:00Z,00000200,01000000,0000.24,0000.44,-000.12,0000.24,0000.25,-000.18,0000.00,0000.16,0000.32,16.6,23.3,,00.0,0666.7,30.8
2021-09-25T00:15:00Z,00000200,01000000,0001.04,0000.12,0000.16,-000.01,0000.17,0000.14,0000.04,0000.26,0000.23,16.6,23.3,,00.0,0666.8,30.8
2021-09-25T00:16:00Z,00000200,01000000,0000.27,0000.41,-000.03,-000.07,-000.10,-000.20,0000.08,-000.24,-000.19,16.7,23.4,,00.0,0666.8,30.9
2021-09-25T00:17:00Z,00000200,01000000,0000.82,0000.13,0000.07,-000.01,0000.33,-000.25,0000.24,0000.54,-000.06,16.7,23.4,,00.0,0666.8,30.9
2021-09-25T00:18:00Z,00000200,01000000,0000.40,0000.29,0000.11,-000.78,-000.08,-000.10,0000.21,-000.18,0000.10,16.8,23.4,,00.0,0666.8,30.9
2021-09-25T00:19:00Z,00000200,01000000,0001.06,0000.66,-000.16,0000.09,0000.11,-000.11,0000.32,0000.11,0000.49,16.8,23.5,,00.0,0666.8,30.9
2021-09-25T00:20:00Z,00000200,01000000,0000.88,0000.11,-000.11,0000.39,0000.06,-000.10,-000.33,-000.10,-000.08,16.8,23.5,,00.0,0666.8,30.9
2021-09-25T00:21:00Z,00000200,01000000,0000.72,0000.12,0000.12,0000.15,-000.20,-000.13,0000.11,-000.03,-000.02,16.8,23.4,,00.0,0666.7,30.9
2021-09-25T00:22:00Z,00000200,01000000,0000.22,0000.38,0000.27,0000.17,0000.47,-000.13,0000.17,0000.44,-000.03,16.7,23.4,,00.0,0666.7,30.8
2021-09-25T00:23:00Z,00000200,01000000,0000.34,0000.55,0000.26,0000.39,0000.28,-000.36,0000.13,-000.16,0000.09,16.6,23.4,,00.0,0666.7,30.8
2021-09-25T00:24:00Z,00000200,01000000,0001.50,0000.40,0000.22,0000.23,0000.12,-000.08,-000.18,-000.15,-000.16,16.6,23.4,,00.0,0666.7,30.8
2021-09-25T00:25:00Z,00000200,01000000,0000.61,-000.11,0000.16,0000.28,0000.20,-000.27,0000.32,0000.32,0000.29,16.5,23.3,,00.0,0666.7,30.8
2021-09-25T00:26:00Z,00000200,01000000,0000.76,0000.37,-000.18,0000.06,-000.06,-000.23,0000.24,0000.33,-000.05,16.5,23.3,,00.0,0666.7,30.8
2021-09-25T00:27:00Z,00000200,01000000,0001.10,0000.46,-000.09,0000.39,0000.12,0000.00,0000.18,-000.06,0000.19,16.4,23.2,,00.0,0666.7,30.8
2021-09-25T00:28:00Z,00000200,01000000,0000.35,0000.28,-000.04,0000.24,0000.25,0000.16,0000.25,0000.27,0000.02,16.4,23.2,,00.0,0666.7,30.8
2021-09-25T00:29:00Z,00000200,01000000,0000.71,0000.37,-000.22,-000.31,0000.47,-000.16,0000.26,0000.39,0000.25,16.5,23.2,,00.0,0666.7,30.8
2021-09-25T00:30:00Z,00000200,01000000,0000.77,0000.25,-000.03,-000.00,0000.00,-000.14,0000.16,-000.51,0000.05,16.5,23.3,,00.0,0666.7,30.8
2021-09-25T00:31:00Z,00000200,01000000,0000.29,0000.37,0000.29,0000.39,0000.26,0000.14,0000.36,0000.66,0000.25,16.6,23.3,,00.0,0666.7,30.8
2021-09-25T00:32:00Z,00000200,01000000,0000.66,0000.54,-000.06,0000.23,0000.21,0000.15,-000.41,0000.10,0000.25,16.7,23.3,,00.0,0666.7,30.8
2021-09-25T00:33:00Z,00000200,01000000,0000.25,0000.11,-000.10,0000.53,0000.31,-000.05,0000.68,0000.18,-000.09,16.7,23.3,,00.0,0666.7,30.9
2021-09-25T00:34:00Z,00000200,01000000,0001.11,0000.43,-000.12,-000.03,-000.06,-000.22,-000.07,0000.26,0000.24,16.8,23.4,,00.0,0666.7,30.9
2021-09-25T00:35:00Z,00000200,01000000,0000.53,0000.46,0000.19,0000.00,0000.32,0000.06,0000.32,0000.14,0000.16,16.8,23.4,,00.0,0666.7,30.9
2021-09-25T00:36:00Z,00000200,01000000,0000.70,0000.18,0000.02,0000.26,-000.06,-000.12,0001.11,0000.64,0000.37,16.7,23.4,,00.0,0666.7,30.9
2021-09-25T00:37:00Z,00000200,01000000,0000.49,0000.45,-000.12,-000.19,0000.19,-000.31,0000.81,0000.77,0000.46,16.7,23.4,,00.0,0666.7,30.9
2021-09-25T00:38:00Z,00000200,01000000,-000.08,-000.02,0000.18,0000.15,0000.21,-000.12,0000.01,0000.54,0000.42,16.6,23.3,,00.0,0666.7,30.8
2021-09-25T00:39:00Z,00000200,01000000,0000.59,0000.24,0000.40,0000.29,-000.09,-000.09,0000.44,0000.10,0000.30,16.5,23.3,,00.0,0666.7,30.8
2021-09-25T00:40:00Z,00000200,01000000,0000.36,0000.08,-000.03,0000.18,0000.16,-000.31,0000.04,-000.23,-000.50,16.5,23.3,,00.0,0666.7,30.8
2021-09-25T00:41:00Z,00000200,01000000,0000.52,0000.45,0000.16,0000.63,0000.11,-000.26,0000.23,0000.17,0000.38,16.4,23.2,,00.0,0666.7,30.8
2021-09-25T00:42:00Z,00000200,01000000,0000.53,0000.55,-000.12,0000.42,-000.14,0000.07,-000.20,0000.04,0000.16,16.4,23.2,,00.0,0666.7,30.8
2021-09-25T00:43:00Z,00000200,01000000,0000.47,0000.28,-000.07,0000.20,0000.15,-000.07,0000.54,0000.38,0000.18,16.4,23.2,,00.0,0666.7,30.8
2021-09-25T00:44:00Z,00000200,01000000,0000.10,0000.44,-000.15,-000.13,0000.08,-000.26,-000.04,0000.28,0000.36,16.4,23.2,,00.0,0666.7,30.8
2021-09-25T00:45:00Z,00000200,01000000,0000.80,0000.43,0000.04,0000.67,0000.20,-000.03,0000.13,0000.10,0000.13,16.5,23.2,,00.0,0666.7,30.8
2021-09-25T00:46:00Z,00000200,01000000,0000.90,0000.08,0000.03,0000.14,0000.05,0000.08,0000.43,0000.21,0000.22,16.6,23.2,,00.0,0666.7,30.8
2021-09-25T00:47:00Z,00000200,01000000,0000.99,0000.39,-000.16,-000.37,0000.16,-000.35,0000.11,0000.30,-000.25,16.7,23.3,,00.0,0666.7,30.8
2021-09-25T00:48:00Z,00000200,01000000,0001.24,0000.47,-000.07,0000.25,0000.13,-000.24,0001.91,0001.97,0001.60,16.7,23.3,,00.0,0666.7,30.9
2021-09-25T00:49:00Z,00000200,01000000,0000.45,0000.26,-000.09,0000.14,-000.05,-000.21,0004.19,0003.24,0002.72,16.8,23.3,,00.0,0666.7,30.9
2021-09-25T00:50:00Z,00000200,01000000,0000.95,0000.40,0000.01,0000.66,0000.17,0000.08,0004.32,0004.11,0002.84,16.8,23.4,,00.0,0666.7,30.9
2021-09-25T00:51:00Z,00000200,01000000,0000.99,0000.44,0000.10,0000.23,0000.04,-000.31,0000.91,0000.92,0000.63,16.8,23.4,,00.0,0666.7,30.9
2021-09-25T00:52:00Z,00000200,01000000,0000.71,0000.26,-000.16,0000.53,0000.01,-000.33,-000.07,-000.05,-000.12,16.8,23.4,,00.0,0666.7,30.9
2021-09-25T00:53:00Z,00000200,01000000,0000.57,0000.24,-000.16,0000.14,0000.07,-000.22,0000.12,-000.06,0000.29,16.7,23.3,,00.0,0666.7,30.8
2021-09-25T00:54:00Z,00000200,01000000,0000.47,0000.18,-000.11,0000.66,0000.33,-000.12,0000.19,0000.13,0000.12,16.6,23.3,,00.0,0666.7,30.8
2021-09-25T00:55:00Z,00000200,01000000,0000.81,0000.07,-000.15,0000.67,-000.04,-000.22,-000.13,-000.02,-000.22,16.6,23.3,,00.0,0666.7,30.8
2021-09-25T00:56:00Z,00000200,01000000,0000.62,0000.26,0000.02,0000.28,0000.19,-000.12,0000.19,-000.01,-000.13,16.5,23.3,,00.0,0666.7,30.8
2021-09-25T00:57:00Z,00000200,41000000,,,,,,,0000.20,0000.07,0000.26,16.5,23.3,,00.0,0666.7,30.8
2021-09-25T00:58:00Z,00000200,61000000,,,,,,,0000.08,-000.03,0000.20,16.1,23.4,,00.0,0665.8,30.8
2021-09-25T00:59:00Z,00000200,21000000,,,,,,,0000.21,0000.70,0000.13,16.2,23.5,,00.0,0665.8,30.8
